Location: Newark
(48.8833°N, 0.9236°W)
Time: 19:47:43
(UTC+00:00)

Transit 4A - Pass Details

Date: 30 November 2019
Orbit: 870 x 975 km, 66.8° (Epoch: 12 December)

Event Time Altitude Azimuth Distance (km) Brightness Sun altitude
Rises 20:22:00 0° 231° (SW) 3,615 11.4 -40.5°
Reaches altitude 10° 20:24:38 10° 236° (SW) 2,659 10.6 -40.9°
Enters shadow 20:26:24 20° 242° (WSW) 2,050 10.0 -41.2°
